This demonstration page uses our WeatherBlox Daily Observations layout. Learn more.

Left ArrowRight Arrow

36.17497, -115.13722

Hourly Observations for June 18, 2019

Temp ( °F °C ) Dew Point ( °F °C ) Humidity (%) Winds ( mph kmh ) Pressure ( in mb ) Visibility ( mi km ) Precip ( " mm )
12:53 am 00:53 Clear 84 28.9 44 6.7 25 25 N 13 20 29.82 1010 10 16 0.00 0.00
1:53 am 01:53 Clear 83 28.3 43 6.1 24 24 NNW 10 17 29.81 1010 10 16 0.00 0.00
2:53 am 02:53 Clear 81 27.2 44 6.7 27 27 N 9 15 29.82 1010 10 16 0.00 0.00
3:53 am 03:53 Clear 79 26.1 44 6.7 29 29 N 13 20 29.83 1010 10 16 0.00 0.00
4:53 am 04:53 Clear 78 25.6 44 6.7 30 30 N 8 13 29.85 1011 10 16 0.00 0.00
5:53 am 05:53 Sunny 77 25 44 6.7 31 31 NNW 9 15 29.87 1012 10 16 0.00 0.00
6:53 am 06:53 Sunny 78 25.6 44 6.7 30 30 N 13 20 29.89 1012 10 16 0.00 0.00
7:53 am 07:53 Sunny 83 28.3 45 7.2 26 26 NNW 15 24 29.89 1012 10 16 0.00 0.00
8:53 am 08:53 Sunny 87 30.6 44 6.7 22 22 N 13 20 29.90 1012 10 16 0.00 0.00
9:53 am 09:53 Sunny 89 31.7 43 6.1 20 20 E 5 7 29.90 1012 10 16 0.00 0.00
10:53 am 10:53 Sunny 89 31.7 43 6.1 20 20 SE 6 9 29.91 1013 10 16 0.00 0.00
11:53 am 11:53 Sunny 91 32.8 41 5 17 17 W 3 6 29.90 1012 10 16 0.00 0.00
12:53 pm 12:53 Sunny 93 33.9 42 5.6 17 17 VRB 7 11 29.87 1012 10 16 0.00 0.00
1:53 pm 13:53 Sunny 97 36.1 39 3.9 13 13 SE 6 9 29.85 1011 10 16 0.00 0.00
2:07 pm 14:07 Sunny with Thunderstorms 97 36.1 39 3.9 13 13 ESE 6 9 29.69 1006 10 16 0.00 0.00
2:43 pm 14:43 Sunny 98 36.7 38 3.3 12 12 ENE 5 7 29.68 1005 10 16 0.00 0.00
2:53 pm 14:53 Sunny 98 36.7 39 3.9 13 13 VRB 7 11 29.83 1010 10 16 0.00 0.00
3:53 pm 15:53 Sunny 97 36.1 39 3.9 13 13 VRB 5 7 29.82 1010 10 16 0.00 0.00
4:53 pm 16:53 Sunny 99 37.2 39 3.9 12 12 E 6 9 29.79 1009 10 16 0.00 0.00
5:53 pm 17:53 Sunny 98 36.7 39 3.9 13 13 WSW 3 6 29.78 1009 10 16 0.00 0.00
6:53 pm 18:53 Sunny 97 36.1 39 3.9 13 13 Calm 29.78 1009 10 16 0.00 0.00
7:53 pm 19:53 Sunny 96 35.6 39 3.9 14 14 SW 5 7 29.78 1009 10 16 0.00 0.00
8:53 pm 20:53 Clear 95 35 40 4.4 15 15 Calm 29.79 1009 10 16 0.00 0.00
9:53 pm 21:53 Clear 93 33.9 41 5 16 16 NW 3 6 29.81 1010 10 16 0.00 0.00
10:53 pm 22:53 Clear 91 32.8 37 2.8 15 15 S 6 9 29.82 1010 10 16 0.00 0.00
11:53 pm 23:53 Clear 86 30 44 6.7 23 23 WNW 6 9 29.82 1010 10 16 0.00 0.00

Powered by AerisWeather